Погода в Винницком

Россия / Республика Крым     44°58′54″N   33°44′06″E
темп.,
°C
ветер,
м/с
пор.,
м/с
влажн.,
%
обл.,
%
осадки,
мм/ч
давл.,
гПа
погр.,
м
20 сентября, пн
пн2000:00+16ююз35830 0.0 1012104
03:00+16ю35819 0.2 101277
06:00+15ю33815 0.1 101247
09:00+21ююз57533 0.1 1012695
12:00+24з56425 0.0 10121405
15:00+23з55430 0.0 10121209
18:00+20зсз345020 0.0 1013390
21:00+16св346187 0.0 101482
21 сентября, вт
вт2100:00+17св585846 0.0 1013351
03:00+13св4886100 2.3 1014351
06:00+13св458798 2.1 1014256
09:00+14ссв5680100 2.3 1015595
12:00+14ссв3474100 0.3 1016554
15:00+16сз346291 0.3 10171078
18:00+15сз675998 0.0 10181173
21:00+12ссз4658100 0.1 1019855
22 сентября, ср
ср2200:00+12сз2456100 0.0 1019495
03:00+9с246898 0.0 1019102
06:00+11ссв1263100 0.0 1018141
09:00+12ссв226198 0.0 1018632
12:00+13сз2361100 0.0 1017988
15:00+14зсз2359100 0.1 10161003
18:00+13сз126099 0.1 1016310
21:00+12ссв3559100 0.1 1016351
23 сентября, чт
чт2300:00+12ссв465998 0.0 1015464
03:00+11св4663100 0.0 1014360
06:00+10св4766100 0.0 1014350
09:00+12св5750100 0.0 1014595
12:00+15ссв5539100 0.0 10131200
15:00+17с5536100 0.0 10121776
18:00+14ссз5548100 0.0 1013822
21:00+11ссз476313 0.0 1014189
24 сентября, пт
пт2400:00+11с3558100 0.0 1015449
03:00+9с356521 0.0 1016131
06:00+8св126916 0.0 1016117
09:00+11вюв115482 0.0 1017420
12:00+15зюз464858 0.0 10161417
15:00+15юз565350 0.0 10161258
18:00+16юз5857100 0.0 10161274
21:00+17юз71057100 0.1 1016688